Location: Allen Fire Department Station 4
(33.1073°N, 96.6988°W)
Time: 15:51:06
(UTC+00:00)

Aurora 2 Rocket - Pass Details

Date: 06 July 2022
Orbit: 389 x 1718 km, 25.0° (Epoch: 06 August)

Event Time Altitude Azimuth Distance (km) Brightness Sun altitude
Rises 01:50:47 0° 236° (WSW) 4,984 7.6 -2.9°
Reaches altitude 10° 01:54:29 10° 230° (SW) 3,982 7.0 -3.6°
Maximum altitude 02:04:08 39° 166° (SSE) 2,181 5.0 -5.3°
Drops below altitude 10° 02:12:16 10° 102° (ESE) 3,357 5.7 -6.8°
Enters shadow 02:13:57 - 97° (E) 3,813 6.0 -7.1°
